1486501201.19,23704,11.06,72852.3,-8.71,-25.49,-31.11,0,*54
1486501202.42,23705,11.06,72852.0,-8.71,-25.35,-31.11,0,*5E
1486501203.66,23706,11.06,72848.8,-8.71,-25.35,-31.11,0,*5D
1486501204.89,23707,11.06,72852.3,-8.71,-25.39,-31.11,0,*50
1486501206.13,23708,11.06,72854.0,-8.71,-25.39,-31.11,0,*5F
1486501207.36,23709,11.06,72852.5,-8.71,-25.23,-30.95,0,*58
1486501208.59,23710,11.06,72854.5,-8.71,-25.23,-30.95,0,*50
1486501209.83,23711,11.06,72854.0,-8.69,-25.35,-30.83,0,*58
1486501211.09,23712,11.06,72852.5,-8.69,-25.35,-30.95,0,*5C
1486501212.33,23713,11.06,72852.5,-8.73,-25.39,-31.17,0,*51
1486501213.54,23714,11.06,72850.0,-8.71,-25.35,-31.01,0,*5F
1486501214.77,23715,11.06,72854.5,-8.71,-25.23,-30.95,0,*55
1486501216.04,23716,11.06,72856.8,-8.73,-25.13,-30.89,0,*5A
1486501217.27,23717,11.06,72852.8,-8.71,-25.23,-30.95,0,*57
1486501218.5,23718,11.06,72854.0,-8.71,-25.19,-30.95,0,*51
1486501219.71,23719,11.06,72852.5,-8.71,-25.23,-30.83,0,*5E
1486501220.93,23720,11.06,72852.5,-8.71,-25.19,-30.83,0,*5D
1486501222.2,23721,11.06,72852.8,-8.71,-25.03,-30.77,0,*5C
1486501223.44,23722,11.06,72852.5,-8.71,-24.93,-30.77,0,*57
1486501224.68,23723,11.06,72850.8,-8.71,-25.03,-30.67,0,*5F
1486501225.92,23724,11.06,72852.5,-8.71,-25.09,-30.77,0,*53
1486501227.19,23725,11.06,72850.8,-8.71,-24.87,-30.61,0,*52
1486501228.48,23726,11.06,72854.3,-8.69,-25.03,-30.61,0,*55
1486501229.73,23727,11.06,72850.5,-8.71,-25.03,-30.67,0,*5B
1486501231.0,23728,11.06,72854.5,-8.73,-25.13,-30.73,0,*52
1486501232.27,23729,11.06,72848.8,-8.69,-25.09,-30.77,0,*57
1486501233.56,23730,11.06,72848.5,-8.69,-25.03,-30.51,0,*51
1486501234.82,23731,11.06,72852.8,-8.69,-25.09,-30.61,0,*59
1486501236.07,23732,11.06,72848.5,-8.69,-25.09,-30.67,0,*5C
1486501237.33,23733,11.06,72854.0,-8.69,-25.09,-30.61,0,*5B
1486501238.58,23734,11.06,72852.5,-8.69,-25.19,-30.67,0,*5B
1486501239.83,23735,11.06,72852.5,-8.69,-24.93,-30.51,0,*5C
1486501241.09,23736,11.06,72854.0,-8.69,-24.93,-30.61,0,*5C
1486501242.38,23737,11.06,72852.5,-8.69,-25.03,-30.61,0,*55
1486501243.65,23738,11.06,72852.0,-8.69,-24.93,-30.61,0,*52
1486501244.91,23739,11.06,72852.8,-8.69,-24.93,-30.61,0,*53
1486501246.17,23740,11.06,72858.8,-8.69,-24.93,-30.61,0,*5D
1486501247.45,23741,11.06,72852.3,-8.69,-24.87,-30.51,0,*5A
1486501248.71,23742,11.06,72854.8,-8.69,-24.93,-30.61,0,*5F
1486501250.0,23743,11.06,72856.0,-8.69,-25.03,-30.51,0,*55
1486501251.27,23744,11.06,72854.8,-8.69,-24.83,-30.45,0,*5E
1486501252.54,23745,11.06,72856.8,-8.69,-24.83,-30.45,0,*5F
1486501253.83,23746,11.06,72854.5,-8.69,-25.03,-30.51,0,*50
1486501255.06,23747,11.06,72854.5,-8.67,-24.87,-30.27,0,*53
1486501256.32,23748,11.06,72852.5,-8.69,-24.87,-30.45,0,*56
1486501257.55,23749,11.06,72850.3,-8.69,-24.93,-30.45,0,*52
1486501258.82,23750,11.06,72854.3,-8.69,-24.87,-30.33,0,*5E
1486501260.09,23751,11.06,72852.8,-8.69,-24.83,-30.45,0,*5A
1486501261.36,23752,11.06,72852.5,-8.69,-24.83,-30.33,0,*58
1486501262.59,23753,11.06,72852.8,-8.69,-24.93,-30.33,0,*58
1486501263.85,23754,11.13,72856.3,-8.69,-24.87,-30.45,0,*5B
1486501265.12,23755,11.06,72852.8,-8.69,-24.83,-30.27,0,*5A
1486501266.39,23756,11.06,72852.3,-8.69,-24.87,-30.33,0,*58
1486501267.66,23757,11.06,72852.8,-8.69,-24.83,-30.33,0,*5D
1486501268.92,23758,11.06,72852.5,-8.69,-24.83,-30.23,0,*53
1486501270.2,23759,11.06,72852.8,-8.69,-24.71,-30.23,0,*5F
1486501271.47,23760,11.06,72854.0,-8.69,-24.71,-30.23,0,*55
1486501272.74,23761,11.06,72852.0,-8.67,-24.67,-30.17,0,*5A
1486501274.0,23762,11.06,72852.5,-8.69,-24.67,-30.27,0,*54
1486501275.26,23763,11.06,72852.3,-8.69,-24.67,-30.23,0,*51
1486501276.53,23764,11.06,72850.8,-8.69,-24.71,-30.23,0,*51
1486501277.78,23765,11.06,72850.3,-8.67,-24.77,-30.17,0,*5F
1486501279.05,23766,11.06,72854.0,-8.69,-24.71,-30.23,0,*53
1486501280.29,23767,11.06,72852.0,-8.67,-24.77,-30.17,0,*5D
1486501281.57,23768,11.06,72852.0,-8.69,-24.71,-30.23,0,*5D
1486501282.82,23769,11.06,72854.8,-8.67,-24.67,-30.05,0,*51
1486501284.1,23770,11.06,72856.3,-8.69,-24.71,-30.23,0,*54
1486501285.37,23771,11.06,72852.5,-8.69,-24.71,-30.11,0,*54
1486501286.6,23772,11.06,72854.0,-8.67,-24.61,-30.05,0,*5D
1486501287.87,23773,11.06,72848.0,-8.69,-24.71,-30.11,0,*56
1486501289.12,23774,11.06,72854.5,-8.71,-24.71,-30.11,0,*58
1486501290.35,23775,11.06,72854.0,-8.71,-24.67,-30.11,0,*5E
1486501291.58,23776,11.06,72854.3,-8.71,-24.67,-30.11,0,*5D
1486501292.82,23777,11.06,72854.3,-8.71,-24.71,-30.11,0,*5B
1486501294.08,23778,11.06,72852.0,-8.71,-24.67,-30.05,0,*56
1486501295.34,23779,11.06,72852.3,-8.71,-24.67,-30.05,0,*57
1486501296.58,23780,11.06,72852.3,-8.67,-24.61,-30.01,0,*54
1486501297.88,23781,11.06,72854.5,-8.69,-24.71,-30.05,0,*5E
1486501299.15,23782,11.06,72854.5,-8.69,-24.71,-30.11,0,*58
1486501300.43,23783,11.06,72852.3,-8.69,-24.67,-30.05,0,*5B
1486501301.67,23784,11.06,72852.3,-8.69,-24.57,-29.95,0,*5E
1486501302.95,23785,11.06,72852.3,-8.69,-24.51,-29.89,0,*54
1486501304.19,23786,11.06,72854.5,-8.73,-24.61,-29.83,0,*55
1486501305.44,23787,11.06,72852.3,-8.71,-24.51,-29.89,0,*5F
1486501306.68,23788,11.06,72854.5,-8.71,-24.57,-29.89,0,*56
1486501307.89,23789,11.06,72856.3,-8.71,-24.57,-29.79,0,*58
1486501309.13,23790,11.06,72852.0,-8.71,-24.51,-29.89,0,*59
1486501310.4,23791,11.06,72854.8,-8.71,-24.67,-29.89,0,*5D
1486501311.63,23792,11.06,72852.5,-8.71,-24.67,-29.95,0,*53
1486501312.92,23793,11.06,72854.3,-8.69,-24.67,-29.89,0,*56
1486501314.16,23794,11.06,72854.3,-8.71,-24.51,-29.73,0,*58
1486501315.4,23795,11.06,72852.8,-8.69,-24.57,-29.79,0,*5C
1486501316.63,23796,11.06,72854.5,-8.69,-24.57,-29.79,0,*5F
1486501317.89,23797,11.06,72856.0,-8.69,-24.67,-29.79,0,*5D
1486501319.15,23798,11.06,72854.3,-8.71,-24.67,-29.73,0,*51
1486501320.42,23799,11.06,72852.5,-8.69,-24.51,-29.73,0,*5C
1486501321.66,23800,11.06,72854.8,-8.71,-24.57,-29.89,0,*59
1486501322.87,23801,11.06,72854.5,-8.71,-24.57,-29.79,0,*57
1486501324.13,23802,11.06,72856.0,-8.69,-24.57,-29.73,0,*57
1486501325.34,23803,11.06,72854.0,-8.71,-24.57,-29.61,0,*5C
1486501326.57,23804,11.06,72854.3,-8.71,-24.57,-29.73,0,*58
1486501327.81,23805,11.06,72854.0,-8.69,-24.57,-29.57,0,*56
1486501329.03,23806,11.06,72856.5,-8.67,-24.47,-29.57,0,*5A
1486501330.27,23807,11.06,72856.3,-8.69,-24.57,-29.79,0,*58
1486501331.5,23808,11.06,72856.0,-8.69,-24.57,-29.79,0,*57
1486501332.75,23809,11.06,72852.8,-8.69,-24.51,-29.57,0,*5C
1486501333.99,23810,11.06,72854.5,-8.69,-24.51,-29.57,0,*54
1486501335.24,23811,11.06,72856.0,-8.71,-24.41,-29.61,0,*58
1486501336.45,23812,11.06,72852.0,-8.71,-24.57,-29.57,0,*59
1486501337.66,23813,11.06,72854.8,-8.71,-24.57,-29.61,0,*5D
1486501338.91,23814,11.06,72852.0,-8.69,-24.51,-29.45,0,*53
1486501340.17,23815,11.06,72856.5,-8.71,-24.41,-29.39,0,*51
1486501341.4,23816,11.06,72852.5,-8.71,-24.35,-29.29,0,*50
1486501342.65,23817,11.06,72854.8,-8.73,-24.47,-29.45,0,*5C
1486501343.93,23818,11.06,72852.3,-8.73,-24.41,-29.29,0,*5F
1486501345.19,23819,11.06,72852.3,-8.71,-24.41,-29.39,0,*5D
1486501346.41,23820,11.06,72854.5,-8.71,-24.57,-29.57,0,*58
1486501347.68,23821,11.06,72852.8,-8.73,-24.41,-29.45,0,*5F
1486501348.97,23822,11.06,72854.3,-8.73,-24.41,-29.35,0,*5B
1486501350.2,23823,11.06,72854.3,-8.71,-24.35,-29.29,0,*56
1486501351.47,23824,11.06,72854.3,-8.71,-24.41,-29.39,0,*53
1486501352.73,23825,11.06,72852.8,-8.71,-24.41,-29.29,0,*53
1486501353.99,23826,11.06,72856.5,-8.73,-24.47,-29.29,0,*54
1486501355.22,23827,11.06,72854.0,-8.71,-24.57,-29.39,0,*57
1486501356.46,23828,11.06,72852.8,-8.71,-24.51,-29.29,0,*5F
1486501357.73,23829,11.06,72852.5,-8.73,-24.47,-29.35,0,*56
1486501358.97,23830,11.06,72854.3,-8.71,-24.51,-29.39,0,*57
1486501360.18,23831,11.06,72852.3,-8.71,-24.51,-29.23,0,*5D
1486501361.46,23832,11.06,72854.8,-8.73,-24.51,-29.35,0,*5B
1486501362.74,23833,11.06,72856.0,-8.73,-24.41,-29.13,0,*5F
1486501363.97,23834,11.06,72854.8,-8.71,-24.57,-29.29,0,*54
1486501365.2,23835,11.06,72856.8,-8.71,-24.35,-29.29,0,*51
1486501366.43,23836,11.06,72854.8,-8.71,-24.35,-29.13,0,*5B
1486501367.69,23837,11.06,72852.0,-8.71,-24.41,-29.13,0,*59
1486501368.95,23838,11.06,72854.3,-8.73,-24.57,-29.13,0,*53
1486501370.16,23839,11.06,72856.0,-8.71,-24.51,-29.07,0,*53
1486501371.42,23840,11.06,72852.0,-8.73,-24.47,-29.13,0,*5D
1486501372.66,23841,11.06,72854.8,-8.71,-24.41,-29.23,0,*5B
1486501373.86,23842,11.06,72856.0,-8.71,-24.35,-29.07,0,*5D
1486501375.07,23843,11.06,72852.5,-8.71,-24.35,-29.07,0,*5C
1486501376.36,23844,11.06,72854.3,-8.73,-24.41,-29.13,0,*5F
1486501377.59,23845,11.06,72858.0,-8.71,-24.35,-29.01,0,*5C
1486501378.86,23846,11.06,72854.3,-8.73,-24.41,-29.07,0,*58
1486501380.12,23847,11.06,72854.0,-8.71,-24.21,-28.91,0,*53
1486501381.39,23848,11.06,72856.0,-8.73,-24.25,-28.97,0,*5C
1486501382.63,23849,11.06,72856.5,-8.71,-24.35,-29.01,0,*50
1486501383.89,23850,11.06,72852.8,-8.73,-24.41,-29.07,0,*5F
1486501385.16,23851,11.06,72856.5,-8.71,-24.21,-28.91,0,*54
1486501386.42,23852,11.06,72856.3,-8.71,-24.25,-29.01,0,*5B
1486501387.66,23853,11.06,72858.0,-8.71,-24.35,-29.01,0,*5B
1486501388.95,23854,11.13,72858.0,-8.73,-24.15,-28.91,0,*54
1486501390.2,23855,11.06,72852.5,-8.71,-24.25,-28.85,0,*51
1486501391.46,23856,11.06,72852.3,-8.71,-24.21,-29.01,0,*5B
1486501392.7,23857,11.06,72856.3,-8.71,-24.35,-29.01,0,*5F
1486501393.96,23858,11.06,72856.0,-8.73,-24.47,-29.13,0,*54
1486501395.2,23859,11.06,72856.3,-8.71,-24.41,-29.07,0,*54
1486501396.46,23860,11.06,72854.8,-8.71,-24.41,-29.01,0,*58
1486501397.7,23861,11.06,72856.8,-8.73,-24.57,-29.07,0,*5A
1486501398.93,23862,11.06,72852.8,-8.71,-24.35,-28.75,0,*5B
1486501400.17,23863,11.06,72854.5,-8.71,-24.25,-28.85,0,*54
1486501401.45,23864,11.06,72856.5,-8.73,-24.47,-28.91,0,*50
1486501402.68,23865,11.06,72854.5,-8.73,-24.57,-29.07,0,*5E
1486501403.97,23866,11.06,72852.3,-8.73,-24.25,-28.79,0,*50
1486501405.2,23867,11.06,72854.3,-8.71,-24.11,-28.69,0,*55
1486501406.48,23868,11.06,72852.5,-8.73,-24.15,-28.75,0,*51
1486501407.75,23869,11.06,72856.0,-8.71,-24.21,-28.75,0,*55
1486501409.01,23870,11.06,72856.8,-8.71,-24.25,-28.75,0,*59
1486501410.27,23871,11.06,72854.8,-8.73,-24.31,-28.79,0,*53
1486501411.51,23872,11.06,72854.0,-8.71,-24.35,-28.75,0,*5A
1486501412.75,23873,11.06,72854.8,-8.71,-24.41,-28.85,0,*57
1486501413.98,23874,11.06,72854.3,-8.71,-24.35,-28.75,0,*5C
1486501415.23,23875,11.06,72852.5,-8.71,-24.41,-28.85,0,*51
1486501416.5,23876,11.06,72854.3,-8.73,-24.47,-28.91,0,*53
1486501417.74,23877,11.06,72854.8,-8.73,-24.47,-28.97,0,*54
1486501418.97,23878,11.06,72856.5,-8.71,-24.57,-29.01,0,*56
1486501420.21,23879,11.06,72852.8,-8.73,-24.61,-28.97,0,*5E
1486501421.45,23880,11.06,72858.5,-8.73,-24.61,-28.97,0,*58
1486501422.68,23881,11.06,72852.5,-8.73,-24.61,-28.97,0,*59
1486501423.91,23882,11.06,72854.8,-8.73,-24.61,-28.97,0,*5A
1486501425.15,23883,11.06,72854.5,-8.71,-24.51,-28.75,0,*56
1486501426.39,23884,11.06,72856.8,-8.71,-24.57,-28.91,0,*5D
1486501427.62,23885,11.06,72854.0,-8.73,-24.61,-28.97,0,*5D
1486501428.86,23886,11.06,72854.0,-8.73,-24.61,-28.97,0,*5E
1486501430.12,23887,11.06,72856.5,-8.73,-24.61,-28.91,0,*59
1486501431.35,23888,11.06,72852.8,-8.75,-24.61,-28.79,0,*56
1486501432.62,23889,11.13,72858.3,-8.73,-24.61,-28.91,0,*57
1486501433.85,23890,11.06,72858.0,-8.73,-24.61,-28.97,0,*59
1486501435.12,23891,11.06,72852.8,-8.73,-24.57,-28.91,0,*5B
1486501436.38,23892,11.06,72854.3,-8.73,-24.61,-28.79,0,*5B
1486501437.61,23893,11.06,72854.0,-8.73,-24.61,-28.97,0,*5A
1486501438.84,23894,11.13,72858.0,-8.75,-24.57,-28.79,0,*5E
1486501440.07,23895,11.06,72852.8,-8.75,-24.61,-28.79,0,*5A
1486501441.34,23896,11.06,72854.5,-8.77,-24.61,-28.79,0,*5B
1486501442.57,23897,11.06,72850.0,-8.75,-24.57,-28.75,0,*51
1486501443.81,23898,11.06,72854.5,-8.75,-24.57,-28.63,0,*59
1486501445.04,23899,11.06,72852.5,-8.75,-24.61,-28.79,0,*56
1486501446.27,23900,11.06,72854.8,-8.75,-24.57,-28.75,0,*5E
1486501447.5,23901,11.06,72854.0,-8.75,-24.61,-28.75,0,*5A
1486501448.73,23902,11.06,72856.3,-8.75,-24.61,-28.79,0,*55
1486501449.97,23903,11.06,72854.8,-8.75,-24.57,-28.63,0,*5A
1486501451.26,23904,11.06,72856.0,-8.77,-24.67,-28.79,0,*57
1486501452.49,23905,11.06,72854.3,-8.75,-24.61,-28.75,0,*5E
1486501453.72,23906,11.06,72858.5,-8.75,-24.61,-28.75,0,*5D
1486501454.95,23907,11.06,72856.0,-8.75,-24.61,-28.75,0,*5C
1486501456.19,23908,11.06,72852.3,-8.75,-24.61,-28.63,0,*54
1486501457.46,23909,11.06,72852.5,-8.75,-24.71,-28.79,0,*5F
1486501458.73,23910,11.06,72858.0,-8.75,-24.71,-28.63,0,*5C
1486501460.0,23911,11.06,72852.3,-8.75,-24.71,-28.75,0,*5A
1486501461.26,23912,11.06,72858.0,-8.77,-24.77,-28.79,0,*51
1486501462.52,23913,11.06,72858.0,-8.75,-24.71,-28.75,0,*58
1486501463.8,23914,11.06,72852.0,-8.75,-24.71,-28.63,0,*58
1486501465.04,23915,11.06,72854.8,-8.77,-24.77,-28.69,0,*57
1486501466.28,23916,11.06,72854.8,-8.77,-24.77,-28.69,0,*54
1486501467.52,23917,11.06,72856.5,-8.77,-24.77,-28.69,0,*55
1486501468.82,23918,11.06,72856.3,-8.77,-24.67,-28.63,0,*51
1486501470.1,23919,11.06,72852.5,-8.77,-24.67,-28.79,0,*5B
1486501471.39,23920,11.06,72852.8,-8.77,-24.83,-28.79,0,*5B
1486501472.66,23921,11.06,72854.5,-8.77,-24.77,-28.79,0,*51
1486501473.94,23922,11.06,72858.0,-8.77,-24.83,-28.79,0,*59
1486501475.19,23923,11.06,72854.5,-8.77,-24.77,-28.69,0,*52
1486501476.43,23924,11.06,72858.5,-8.75,-24.77,-28.63,0,*5D
1486501477.67,23925,11.06,72852.0,-8.77,-24.77,-28.53,0,*5D
1486501478.91,23926,11.06,72854.8,-8.75,-24.61,-28.47,0,*5E
1486501480.2,23927,11.06,72850.8,-8.77,-24.67,-28.63,0,*5D
1486501481.47,23928,11.06,72852.5,-8.77,-24.77,-28.63,0,*53
1486501482.75,23929,11.06,72854.0,-8.77,-24.77,-28.63,0,*52
1486501483.99,23930,11.06,72856.0,-8.77,-24.77,-28.53,0,*59
1486501485.26,23931,11.06,72854.3,-8.77,-24.83,-28.69,0,*5A
1486501486.53,23932,11.06,72856.0,-8.77,-24.77,-28.63,0,*58
1486501487.76,23933,11.06,72858.0,-8.75,-24.61,-28.47,0,*5A
1486501489.03,23934,11.06,72852.3,-8.77,-24.67,-28.53,0,*5C
1486501490.33,23935,11.06,72852.5,-8.77,-24.83,-28.63,0,*54
1486501491.61,23936,11.06,72852.8,-8.81,-24.87,-28.75,0,*5D
1486501492.86,23937,11.06,72854.8,-8.81,-24.87,-28.69,0,*51
1486501494.11,23938,11.06,72854.8,-8.77,-24.77,-28.53,0,*51
1486501495.37,23939,11.06,72852.5,-8.77,-24.77,-28.47,0,*55
1486501496.64,23940,11.13,72858.8,-8.77,-24.83,-28.53,0,*55
1486501497.94,23941,11.06,72852.0,-8.77,-24.83,-28.63,0,*57
1486501499.23,23942,11.06,72856.5,-8.81,-24.83,-28.59,0,*54
1486501500.5,23943,11.06,72856.3,-8.77,-24.83,-28.37,0,*54
1486501501.79,23944,11.06,72852.5,-8.77,-24.83,-28.47,0,*54
1486501503.04,23945,11.06,72854.3,-8.77,-24.77,-28.37,0,*59
1486501504.32,23946,11.06,72854.3,-8.81,-24.83,-28.43,0,*5B
1486501505.57,23947,11.13,72856.0,-8.77,-24.77,-28.31,0,*5D
1486501506.82,23948,11.06,72856.0,-8.77,-24.77,-28.31,0,*52
1486501508.06,23949,11.06,72854.8,-8.77,-24.77,-28.37,0,*55
1486501509.35,23950,11.06,72854.3,-8.77,-24.83,-28.47,0,*51
1486501510.62,23951,11.06,72858.8,-8.77,-24.97,-28.63,0,*53
1486501511.91,23952,11.06,72854.8,-8.77,-24.83,-28.47,0,*53
1486501513.21,23953,11.06,72856.3,-8.77,-24.83,-28.21,0,*52
1486501514.49,23954,11.06,72858.5,-8.73,-24.71,-28.15,0,*5B
1486501515.78,23955,11.06,72852.5,-8.77,-24.67,-28.21,0,*5E
1486501517.08,23956,11.06,72852.0,-8.77,-24.67,-28.09,0,*57
1486501518.28,23957,11.06,72850.0,-8.75,-24.57,-27.93,0,*5B
1486501519.53,23958,11.06,72854.8,-8.77,-24.51,-27.93,0,*50
1486501520.81,23959,11.06,72852.0,-8.77,-24.51,-27.99,0,*5B
1486501522.03,23960,11.06,72854.0,-8.75,-24.47,-27.89,0,*55
1486501523.27,23961,11.06,72854.8,-8.77,-24.47,-27.77,0,*57
1486501524.49,23962,11.06,72854.5,-8.75,-24.31,-27.71,0,*51
1486501525.73,23963,11.06,72852.3,-8.75,-24.31,-27.61,0,*51
1486501526.98,23964,11.06,72852.8,-8.73,-24.31,-27.71,0,*51
1486501528.25,23965,11.06,72852.5,-8.73,-24.31,-27.61,0,*51
1486501529.46,23966,11.06,72858.0,-8.71,-24.35,-27.89,0,*52
1486501530.71,23967,11.06,72856.3,-8.71,-24.51,-27.83,0,*5B
1486501531.95,23968,11.06,72856.0,-8.73,-24.61,-27.89,0,*5F
1486501533.22,23969,11.06,72854.8,-8.71,-24.71,-28.09,0,*5A
1486501534.48,23970,11.06,72858.0,-8.71,-24.87,-28.25,0,*55
1486501535.74,23971,11.06,72854.5,-8.71,-24.87,-28.25,0,*54
1486501537.01,23972,11.06,72854.3,-8.71,-24.83,-28.21,0,*57
1486501538.21,23973,11.06,72854.3,-8.71,-24.93,-28.37,0,*50
1486501539.48,23974,11.06,72852.5,-8.71,-24.87,-28.25,0,*51
1486501540.71,23975,11.06,72856.0,-8.71,-24.93,-28.21,0,*51
1486501541.97,23976,11.06,72854.3,-8.71,-24.87,-28.21,0,*57
1486501543.23,23977,11.06,72852.3,-8.73,-24.87,-28.15,0,*53
1486501544.5,23978,11.06,72856.0,-8.73,-24.87,-28.15,0,*5C
1486501545.73,23979,11.06,72852.3,-8.71,-24.93,-28.21,0,*5D
1486501546.99,23980,11.06,72858.5,-8.71,-25.03,-28.09,0,*59
1486501548.25,23981,11.06,72858.3,-8.71,-24.87,-28.09,0,*55
1486501549.52,23982,11.13,72858.3,-8.71,-24.83,-28.09,0,*52
1486501550.79,23983,11.06,72856.5,-8.71,-24.71,-27.99,0,*58
1486501552.08,23984,11.06,72852.3,-8.69,-24.83,-27.99,0,*5B
1486501553.36,23985,11.06,72854.8,-8.71,-24.71,-27.99,0,*5E
1486501554.62,23986,11.06,72858.0,-8.71,-24.87,-27.99,0,*54
1486501555.91,23987,11.06,72858.3,-8.69,-24.87,-28.09,0,*5A
1486501557.17,23988,11.06,72854.3,-8.65,-24.87,-28.15,0,*54
1486501558.46,23989,11.06,72854.5,-8.69,-24.87,-27.99,0,*52
1486501559.72,23990,11.06,72852.3,-8.69,-24.87,-27.89,0,*5B
1486501561.01,23991,11.06,72856.3,-8.69,-24.83,-27.99,0,*5F
1486501562.23,23992,11.06,72852.8,-8.67,-24.61,-27.71,0,*58
1486501563.53,23993,11.06,72852.8,-8.69,-24.71,-27.99,0,*50
1486501564.74,23994,11.06,72856.0,-8.67,-24.77,-27.67,0,*5E
1486501566.03,23995,11.06,72856.5,-8.69,-24.83,-27.83,0,*50
1486501567.31,23996,11.06,72856.3,-8.69,-24.71,-27.71,0,*53
1486501568.55,23997,11.06,72856.5,-8.67,-24.83,-27.67,0,*56
1486501569.79,23998,11.06,72852.8,-8.67,-24.67,-27.67,0,*53
1486501571.07,23999,11.06,72852.3,-8.65,-24.67,-27.61,0,*56
1486501572.28,24000,11.06,72858.3,-8.63,-24.77,-27.67,0,*59
1486501573.57,24001,11.06,72854.8,-8.65,-24.67,-27.61,0,*59
1486501574.84,24002,11.06,72858.0,-8.65,-24.83,-27.67,0,*56
1486501576.09,24003,11.06,72856.5,-8.65,-24.97,-27.83,0,*58
1486501577.29,24004,11.06,72856.3,-8.63,-24.93,-27.77,0,*56
1486501578.49,24005,11.06,72858.5,-8.63,-24.97,-27.89,0,*52
1486501579.7,24006,11.06,72852.8,-8.63,-24.97,-27.89,0,*51
1486501580.96,24007,11.06,72856.0,-8.65,-25.19,-28.05,0,*5A
1486501582.19,24008,11.06,72852.3,-8.63,-25.23,-27.99,0,*50
1486501583.42,24009,11.06,72854.5,-8.63,-25.09,-28.09,0,*5F
1486501584.62,24010,11.06,72854.0,-8.63,-25.09,-27.89,0,*50
1486501585.83,24011,11.06,72856.5,-8.63,-25.13,-27.89,0,*5A
1486501587.12,24012,11.06,72852.3,-8.65,-25.29,-28.05,0,*5D
1486501588.37,24013,11.06,72854.3,-8.63,-25.29,-27.99,0,*50
1486501589.58,24014,11.06,72856.8,-8.63,-24.97,-27.71,0,*55
1486501590.8,24015,11.06,72858.5,-8.63,-24.93,-27.61,0,*51
1486501592.1,24016,11.06,72858.0,-8.61,-24.83,-27.61,0,*51
1486501593.32,24017,11.06,72852.3,-8.61,-24.93,-27.55,0,*56
1486501594.52,24018,11.06,72856.3,-8.59,-24.97,-27.71,0,*50
1486501595.81,24019,11.06,72856.8,-8.61,-24.83,-27.45,0,*58
1486501597.04,24020,11.06,72856.0,-8.61,-24.93,-27.55,0,*52
1486501598.23,24021,11.06,72856.3,-8.59,-24.93,-27.55,0,*58
1486501599.46,24022,11.06,72854.5,-8.59,-25.03,-27.67,0,*52
1486501600.7,24023,11.06,72856.5,-8.61,-25.09,-27.71,0,*55
1486501601.92,24024,11.06,72856.3,-8.59,-25.03,-27.55,0,*55
1486501603.15,24025,11.06,72854.3,-8.59,-25.23,-27.83,0,*5D
1486501604.38,24026,11.06,72852.8,-8.59,-25.03,-27.67,0,*56
1486501605.61,24027,11.06,72854.0,-8.59,-25.03,-27.67,0,*57
1486501606.84,24028,11.06,72856.0,-8.59,-25.03,-27.67,0,*58
1486501608.04,24029,11.06,72854.0,-8.59,-25.09,-27.55,0,*52
1486501609.28,24030,11.06,72858.3,-8.51,-25.13,-27.67,0,*58
1486501610.52,24031,11.06,72854.3,-8.55,-25.49,-28.05,0,*59
1486501611.78,24032,11.06,72852.3,-8.55,-25.55,-28.09,0,*5B
1486501613.04,24033,11.06,72856.5,-8.55,-25.55,-28.09,0,*5A
1486501614.3,24034,11.06,72852.5,-8.51,-25.61,-28.05,0,*52
1486501615.51,24035,11.06,72858.3,-8.55,-25.49,-27.93,0,*5D
1486501616.75,24036,11.06,72850.0,-8.55,-25.55,-27.93,0,*53
1486501618.0,24037,11.06,72854.8,-8.51,-25.45,-27.89,0,*5C
1486501619.2,24038,11.06,72854.8,-8.55,-25.35,-27.71,0,*57
1486501620.43,24039,11.06,72854.5,-8.51,-25.19,-27.51,0,*5E
1486501621.66,24040,11.06,72856.8,-8.51,-25.19,-27.51,0,*50
1486501622.92,24041,11.06,72854.0,-8.51,-25.29,-27.51,0,*52
1486501624.15,24042,11.06,72854.5,-8.51,-25.19,-27.51,0,*52
1486501625.38,24043,11.06,72852.8,-8.49,-25.39,-27.61,0,*5B
1486501626.64,24044,11.06,72858.0,-8.49,-25.29,-27.61,0,*5D
1486501627.87,24045,11.06,72852.8,-8.49,-25.13,-27.45,0,*53
1486501629.13,24046,11.06,72856.8,-8.47,-25.13,-27.45,0,*5E
1486501630.36,24047,11.06,72854.8,-8.49,-25.13,-27.45,0,*51
1486501631.56,24048,11.06,72854.5,-8.49,-25.23,-27.55,0,*5C
1486501632.79,24049,11.06,72858.8,-8.49,-25.29,-27.55,0,*57
1486501634.0,24050,11.06,72854.3,-8.49,-25.39,-27.55,0,*5E
1486501635.25,24051,11.06,72852.3,-8.49,-25.29,-27.45,0,*5F
1486501636.47,24052,11.06,72856.0,-8.49,-25.23,-27.45,0,*56
1486501637.72,24053,11.06,72854.8,-8.49,-25.29,-27.45,0,*5D
1486501638.95,24054,11.06,72856.5,-8.49,-25.39,-27.45,0,*5B
1486501640.23,24055,11.06,72856.0,-8.47,-25.29,-27.45,0,*55
1486501641.48,24056,11.13,72856.5,-8.47,-25.45,-27.55,0,*5D
1486501642.76,24057,11.06,72854.5,-8.47,-25.45,-27.45,0,*5D
1486501644.02,24058,11.06,72854.5,-8.47,-25.39,-27.39,0,*52
1486501645.28,24059,11.06,72852.8,-8.47,-25.39,-27.39,0,*53
1486501646.51,24060,11.06,72856.0,-8.45,-25.35,-27.39,0,*57
1486501647.75,24061,11.06,72856.3,-8.45,-25.35,-27.35,0,*5A
1486501648.99,24062,11.06,72854.3,-8.45,-25.35,-27.23,0,*5E
1486501650.23,24063,11.06,72858.0,-8.45,-25.35,-27.35,0,*58
1486501651.49,24064,11.06,72856.5,-8.43,-25.55,-27.55,0,*59
1486501652.75,24065,11.06,72856.5,-8.43,-25.55,-27.55,0,*58
1486501653.98,24066,11.06,72854.3,-8.43,-25.49,-27.51,0,*52
1486501655.2,24067,11.06,72856.0,-8.45,-25.49,-27.55,0,*51
1486501656.44,24068,11.06,72852.0,-8.45,-25.55,-27.55,0,*53
1486501657.7,24069,11.06,72858.3,-8.43,-25.39,-27.39,0,*54
1486501658.95,24070,11.06,72854.0,-8.43,-25.39,-27.19,0,*5E
1486501660.21,24071,11.06,72856.5,-8.43,-25.39,-27.23,0,*56
1486501661.46,24072,11.06,72856.8,-8.43,-25.35,-27.23,0,*59
1486501662.69,24073,11.13,72858.5,-8.43,-25.35,-27.07,0,*5E
1486501663.94,24074,11.06,72856.5,-8.43,-25.35,-27.19,0,*56
1486501665.17,24075,11.06,72852.8,-8.41,-25.29,-27.13,0,*52
1486501666.4,24076,11.06,72856.3,-8.41,-25.29,-27.13,0,*51
1486501667.68,24077,11.06,72852.0,-8.39,-25.29,-27.19,0,*55
1486501668.9,24078,11.06,72856.3,-8.41,-25.29,-27.13,0,*5F
1486501670.16,24079,11.06,72854.5,-8.39,-25.29,-27.03,0,*50
1486501671.36,24080,11.06,72852.5,-8.41,-25.35,-27.13,0,*55
1486501672.57,24081,11.06,72856.5,-8.41,-25.35,-27.13,0,*54
1486501673.79,24082,11.06,72854.5,-8.39,-25.35,-27.13,0,*58
1486501675.05,24083,11.06,72858.0,-8.37,-25.29,-26.97,0,*57
1486501676.31,24084,11.06,72852.0,-8.37,-25.29,-26.97,0,*50
1486501677.59,24085,11.06,72854.0,-8.35,-25.29,-26.97,0,*53
1486501678.85,24086,11.06,72854.8,-8.35,-25.39,-26.97,0,*51
1486501680.08,24087,11.06,72856.3,-8.35,-25.39,-27.07,0,*58
1486501681.32,24088,11.06,72854.3,-8.35,-25.39,-27.07,0,*57
1486501682.58,24089,11.06,72856.0,-8.35,-25.29,-27.07,0,*57
1486501683.83,24090,11.06,72858.0,-8.35,-25.45,-27.07,0,*55
1486501685.07,24091,11.06,72858.0,-8.35,-25.49,-27.13,0,*5D
1486501686.27,24092,11.06,72854.8,-8.33,-25.35,-27.03,0,*52
1486501687.48,24093,11.06,72854.3,-8.33,-25.35,-27.03,0,*53
1486501688.69,24094,11.06,72854.3,-8.29,-25.39,-27.07,0,*57
1486501689.92,24095,11.06,72854.8,-8.33,-25.45,-27.07,0,*56
1486501691.16,24096,11.06,72856.5,-8.33,-25.55,-27.07,0,*54
1486501692.39,24097,11.06,72854.3,-8.33,-25.39,-26.93,0,*53
1486501693.62,24098,11.06,72854.3,-8.29,-25.61,-27.19,0,*59
1486501694.89,24099,11.06,72852.8,-8.29,-25.75,-27.23,0,*54
1486501696.15,24100,11.06,72852.0,-8.33,-25.75,-27.39,0,*55
1486501697.38,24101,11.06,72854.5,-8.29,-25.45,-27.07,0,*51
1486501698.61,24102,11.06,72854.8,-8.29,-25.45,-27.03,0,*56
1486501699.86,24103,11.06,72854.3,-8.29,-25.55,-27.03,0,*56